| time (UTC) | temp F | wind direction | speed MPH | gust MPH | rain 1hr in | rain 24hr in | rain mn in | humidity % | barometer mb |
| 20260509063214 | 48 | 77 | 0.0 | 0.0 | 0.00 | 0.01 | 0.00 | 85 | 1014.3 |
| 20260509062716 | 48 | 77 | 0.0 | 0.0 | 0.00 | 0.01 | 0.00 | 84 | 1014.4 |
| 20260509062212 | 48 | 77 | 0.0 | 0.0 | 0.00 | 0.01 | 0.00 | 84 | 1014.4 |
| 20260509061713 | 48 | 77 | 0.0 | 0.0 | 0.00 | 0.01 | 0.00 | 84 | 1014.5 |
| 20260509061212 | 48 | 77 | 0.0 | 0.0 | 0.00 | 0.01 | 0.00 | 84 | 1014.7 |
| 20260509060714 | 48 | 77 | 0.0 | 0.0 | 0.00 | 0.01 | 0.00 | 84 | 1014.7 |
| 20260509060213 | 48 | 77 | 0.0 | 0.0 | 0.00 | 0.01 | 0.00 | 85 | 1014.9 |
| 20260509055714 | 48 | 77 | 0.0 | 0.0 | 0.00 | 0.01 | 0.00 | 84 | 1014.7 |
| 20260509055214 | 48 | 77 | 0.0 | 0.0 | 0.00 | 0.01 | 0.00 | 84 | 1014.7 |
| 20260509054712 | 48 | 77 | 0.0 | 0.0 | 0.00 | 0.01 | 0.00 | 84 | 1014.8 |
| 20260509054213 | 48 | 77 | 0.0 | 0.0 | 0.00 | 0.01 | 0.00 | 84 | 1014.7 |
| 20260509053714 | 48 | 77 | 0.0 | 0.0 | 0.00 | 0.01 | 0.00 | 84 | 1014.8 |
| 20260509053212 | 48 | 77 | 0.0 | 0.0 | 0.00 | 0.01 | 0.00 | 83 | 1014.7 |
| 20260509052712 | 48 | 77 | 0.0 | 0.0 | 0.00 | 0.01 | 0.00 | 84 | 1014.6 |
| 20260509051713 | 49 | 77 | 0.0 | 0.0 | 0.00 | 0.01 | 0.00 | 84 | 1014.5 |
| 20260509051213 | 48 | 77 | 0.0 | 0.0 | 0.00 | 0.01 | 0.00 | 83 | 1014.5 |
| 20260509050711 | 48 | 77 | 0.0 | 0.0 | 0.00 | 0.01 | 0.00 | 84 | 1014.6 |
| 20260509050210 | 48 | 77 | 0.0 | 0.0 | 0.00 | 0.01 | 0.00 | 84 | 1014.6 |
| 20260509045710 | 48 | 77 | 0.0 | 0.0 | 0.00 | 0.01 | 0.00 | 84 | 1014.6 |
| 20260509044206 | 48 | 77 | 0.0 | 0.0 | 0.00 | 0.01 | 0.00 | 84 | 1014.8 |
| 20260509043200 | 48 | 77 | 0.0 | 0.0 | 0.00 | 0.01 | 0.00 | 84 | 1014.8 |
| 20260509042701 | 48 | 77 | 0.0 | 0.0 | 0.00 | 0.01 | 0.00 | 83 | 1014.8 |
| 20260509041656 | 48 | 77 | 0.0 | 0.0 | 0.00 | 0.01 | 0.00 | 84 | 1014.8 |
| 20260509041157 | 48 | 77 | 0.0 | 0.0 | 0.00 | 0.01 | 0.00 | 83 | 1014.7 |
| 20260509040653 | 48 | 77 | 0.0 | 0.0 | 0.00 | 0.01 | 0.00 | 83 | 1015.0 |
| 20260509040151 | 48 | 77 | 0.0 | 0.0 | 0.00 | 0.01 | 0.00 | 82 | 1015.0 |
| 20260509035148 | 48 | 77 | 0.0 | 0.0 | 0.00 | 0.01 | 0.01 | 82 | 1015.0 |
| 20260509034647 | 48 | 77 | 0.0 | 0.0 | 0.00 | 0.01 | 0.01 | 81 | 1014.9 |
| 20260509034144 | 48 | 77 | 0.0 | 0.0 | 0.00 | 0.01 | 0.01 | 80 | 1014.8 |
| 20260509033644 | 48 | 77 | 0.0 | 0.0 | 0.00 | 0.01 | 0.01 | 80 | 1014.8 |
| 20260509033143 | 48 | 77 | 0.0 | 0.0 | 0.00 | 0.01 | 0.01 | 80 | 1014.9 |
| 20260509032140 | 48 | 77 | 0.0 | 0.0 | 0.00 | 0.01 | 0.01 | 80 | 1014.6 |
| 20260509031137 | 49 | 77 | 0.0 | 0.0 | 0.00 | 0.01 | 0.01 | 79 | 1014.6 |
| 20260509030634 | 49 | 77 | 0.0 | 0.0 | 0.00 | 0.01 | 0.01 | 78 | 1014.6 |
| 20260509030133 | 49 | 77 | 0.0 | 0.0 | 0.00 | 0.01 | 0.01 | 79 | 1014.5 |
| 20260509025633 | 49 | 77 | 0.0 | 0.0 | 0.00 | 0.01 | 0.01 | 78 | 1014.5 |
| 20260509025133 | 48 | 77 | 0.0 | 0.0 | 0.00 | 0.01 | 0.01 | 78 | 1014.4 |
| 20260509024630 | 48 | 77 | 0.0 | 0.0 | 0.00 | 0.01 | 0.01 | 77 | 1014.3 |
| 20260509024125 | 48 | 77 | 0.0 | 0.0 | 0.00 | 0.01 | 0.01 | 78 | 1014.4 |
| 20260509023618 | 48 | 77 | 0.0 | 0.0 | 0.00 | 0.01 | 0.01 | 78 | 1014.5 |
| 20260509022618 | 48 | 77 | 0.0 | 0.0 | 0.00 | 0.01 | 0.01 | 79 | 1014.3 |
| 20260509022119 | 48 | 77 | 0.0 | 0.0 | 0.00 | 0.01 | 0.01 | 79 | 1014.4 |
| 20260509021617 | 47 | 77 | 0.0 | 0.0 | 0.00 | 0.01 | 0.01 | 79 | 1014.4 |
| 20260509021119 | 47 | 77 | 0.0 | 0.0 | 0.00 | 0.01 | 0.01 | 79 | 1014.5 |
| 20260509020619 | 47 | 77 | 0.0 | 0.0 | 0.00 | 0.01 | 0.01 | 78 | 1014.4 |
| 20260509020118 | 47 | 77 | 0.0 | 0.0 | 0.00 | 0.01 | 0.01 | 79 | 1014.5 |
| 20260509015620 | 47 | 77 | 0.0 | 0.0 | 0.00 | 0.01 | 0.01 | 78 | 1014.5 |
| 20260509015117 | 47 | 77 | 0.0 | 0.0 | 0.00 | 0.01 | 0.01 | 79 | 1014.5 |
| 20260509014116 | 47 | 77 | 0.0 | 0.0 | 0.00 | 0.01 | 0.01 | 78 | 1014.3 |
| 20260509013617 | 47 | 77 | 0.0 | 0.0 | 0.00 | 0.01 | 0.01 | 78 | 1014.2 |
| 20260509013113 | 47 | 77 | 0.0 | 0.0 | 0.00 | 0.01 | 0.01 | 78 | 1014.3 |
| 20260509011612 | 47 | 77 | 0.0 | 0.0 | 0.00 | 0.01 | 0.01 | 78 | 1014.2 |
| 20260509011112 | 47 | 77 | 0.0 | 0.0 | 0.00 | 0.01 | 0.01 | 77 | 1014.2 |
| 20260509010611 | 47 | 77 | 0.0 | 0.0 | 0.00 | 0.01 | 0.01 | 77 | 1014.1 |
| 20260509010113 | 47 | 77 | 0.0 | 0.0 | 0.00 | 0.01 | 0.01 | 77 | 1014.1 |
| 20260509005612 | 47 | 77 | 0.0 | 0.0 | 0.00 | 0.01 | 0.01 | 77 | 1014.0 |
| 20260509004612 | 48 | 77 | 0.0 | 0.0 | 0.00 | 0.01 | 0.01 | 75 | 1013.7 |
| 20260509004112 | 48 | 77 | 0.0 | 0.0 | 0.00 | 0.01 | 0.01 | 75 | 1013.5 |
| 20260509003612 | 49 | 77 | 0.0 | 0.0 | 0.00 | 0.01 | 0.01 | 74 | 1013.5 |
| 20260509003112 | 49 | 77 | 0.0 | 0.0 | 0.00 | 0.01 | 0.01 | 74 | 1013.4 |
| 20260509002610 | 49 | 77 | 0.0 | 0.0 | 0.00 | 0.01 | 0.01 | 73 | 1013.3 |
| 20260509002110 | 50 | 80 | 0.0 | 0.0 | 0.00 | 0.01 | 0.01 | 74 | 1013.3 |
| 20260509001611 | 50 | 80 | 0.0 | 0.0 | 0.00 | 0.01 | 0.01 | 72 | 1013.3 |
| 20260509001108 | 51 | 80 | 0.0 | 0.0 | 0.00 | 0.01 | 0.01 | 71 | 1013.2 |
| 20260509000605 | 51 | 80 | 0.0 | 0.0 | 0.00 | 0.01 | 0.01 | 69 | 1013.1 |
| 20260509000104 | 52 | 80 | 0.0 | 0.0 | 0.00 | 0.01 | 0.01 | 68 | 1013.1 |
| 20260508235602 | 52 | 86 | 0.0 | 0.0 | 0.00 | 0.01 | 0.01 | 66 | 1013.1 |
| 20260508235104 | 52 | 86 | 0.0 | 0.0 | 0.00 | 0.01 | 0.01 | 66 | 1012.9 |
| 20260508234557 | 53 | 86 | 0.0 | 0.0 | 0.00 | 0.01 | 0.01 | 65 | 1012.9 |
| 20260508234052 | 53 | 88 | 0.0 | 0.0 | 0.00 | 0.01 | 0.01 | 67 | 1012.9 |
| 20260508233546 | 53 | 88 | 0.0 | 0.0 | 0.00 | 0.01 | 0.01 | 66 | 1012.9 |
| 20260508233040 | 53 | 88 | 0.0 | 0.0 | 0.00 | 0.01 | 0.01 | 66 | 1012.9 |
| 20260508232534 | 53 | 88 | 0.0 | 0.0 | 0.00 | 0.01 | 0.01 | 66 | 1012.7 |
| 20260508231521 | 53 | 88 | 0.0 | 0.0 | 0.00 | 0.01 | 0.01 | 66 | 1012.7 |
| 20260508231015 | 54 | 88 | 0.0 | 0.0 | 0.00 | 0.01 | 0.01 | 66 | 1012.6 |
| 20260508230510 | 54 | 88 | 0.0 | 0.0 | 0.00 | 0.01 | 0.01 | 64 | 1012.6 |
| 20260508230003 | 54 | 88 | 0.0 | 0.0 | 0.00 | 0.01 | 0.01 | 63 | 1012.5 |
| 20260508225457 | 54 | 88 | 0.0 | 0.0 | 0.00 | 0.01 | 0.01 | 62 | 1012.6 |
| 20260508224951 | 55 | 88 | 0.0 | 0.0 | 0.00 | 0.01 | 0.01 | 59 | 1012.5 |
| 20260508224445 | 55 | 88 | 0.0 | 0.0 | 0.00 | 0.01 | 0.01 | 58 | 1012.5 |
| 20260508223940 | 55 | 163 | 0.0 | 0.0 | 0.00 | 0.01 | 0.01 | 58 | 1012.4 |
| 20260508222927 | 55 | 163 | 0.0 | 0.0 | 0.00 | 0.01 | 0.01 | 56 | 1012.4 |
| 20260508222421 | 56 | 167 | 0.0 | 0.0 | 0.00 | 0.01 | 0.01 | 60 | 1012.4 |
| 20260508221915 | 56 | 167 | 0.0 | 0.0 | 0.00 | 0.01 | 0.01 | 58 | 1012.4 |
| 20260508221410 | 56 | 196 | 0.0 | 0.0 | 0.00 | 0.01 | 0.01 | 57 | 1012.4 |
| 20260508220903 | 56 | 120 | 0.0 | 0.0 | 0.00 | 0.01 | 0.01 | 57 | 1012.3 |
| 20260508220358 | 56 | 285 | 0.0 | 0.0 | 0.00 | 0.01 | 0.01 | 59 | 1012.4 |
| 20260508214840 | 56 | 89 | 0.0 | 0.0 | 0.00 | 0.01 | 0.01 | 58 | 1012.6 |
| 20260508213828 | 56 | 47 | 0.0 | 1.0 | 0.00 | 0.01 | 0.01 | 59 | 1012.6 |
| 20260508213322 | 56 | 116 | 0.0 | 0.0 | 0.00 | 0.01 | 0.01 | 59 | 1012.5 |
| 20260508212815 | 56 | 98 | 0.0 | 0.0 | 0.00 | 0.01 | 0.01 | 60 | 1012.6 |
| 20260508212309 | 56 | 175 | 0.0 | 0.0 | 0.00 | 0.01 | 0.01 | 61 | 1012.5 |
| 20260508211803 | 56 | 84 | 0.0 | 2.0 | 0.00 | 0.01 | 0.01 | 60 | 1012.4 |
| 20260508211257 | 56 | 359 | 0.0 | 2.0 | 0.00 | 0.01 | 0.01 | 59 | 1012.4 |
| 20260508210751 | 56 | 131 | 0.0 | 2.0 | 0.00 | 0.01 | 0.01 | 60 | 1012.4 |
| 20260508210245 | 56 | 97 | 0.0 | 2.0 | 0.00 | 0.01 | 0.01 | 59 | 1012.3 |
| 20260508205741 | 56 | 141 | 0.0 | 5.0 | 0.00 | 0.01 | 0.01 | 62 | 1012.3 |
| 20260508205241 | 55 | 133 | 0.0 | 5.0 | 0.00 | 0.01 | 0.01 | 61 | 1012.3 |
| 20260508204741 | 55 | 222 | 0.0 | 3.0 | 0.00 | 0.01 | 0.01 | 62 | 1012.4 |
| 20260508204241 | 55 | 120 | 0.0 | 3.0 | 0.00 | 0.01 | 0.01 | 65 | 1012.5 |
| 20260508203240 | 54 | 119 | 0.0 | 2.0 | 0.00 | 0.01 | 0.01 | 67 | 1012.0 |
| 20260508202739 | 54 | 136 | 0.0 | 3.0 | 0.00 | 0.01 | 0.01 | 67 | 1012.2 |
| 20260508202240 | 54 | 127 | 0.0 | 3.0 | 0.00 | 0.01 | 0.01 | 70 | 1012.2 |
| 20260508201739 | 53 | 127 | 0.0 | 6.0 | 0.00 | 0.01 | 0.01 | 70 | 1012.1 |
| 20260508201239 | 53 | 235 | 0.0 | 6.0 | 0.00 | 0.01 | 0.01 | 68 | 1012.2 |
| 20260508200738 | 53 | 238 | 0.0 | 2.0 | 0.00 | 0.01 | 0.01 | 73 | 1012.1 |
| 20260508200238 | 53 | 182 | 0.0 | 1.0 | 0.00 | 0.01 | 0.01 | 73 | 1012.2 |
| 20260508195237 | 51 | 130 | 0.0 | 2.0 | 0.00 | 0.01 | 0.01 | 76 | 1012.3 |
| 20260508194738 | 51 | 146 | 0.0 | 1.0 | 0.01 | 0.01 | 0.01 | 77 | 1012.5 |
| 20260508194236 | 51 | 153 | 0.0 | 1.0 | 0.01 | 0.01 | 0.01 | 77 | 1012.6 |
| 20260508193736 | 51 | 142 | 0.0 | 0.0 | 0.01 | 0.01 | 0.01 | 80 | 1012.7 |
| 20260508193230 | 51 | 200 | 0.0 | 2.0 | 0.01 | 0.01 | 0.01 | 79 | 1012.9 |
| 20260508192724 | 50 | 153 | 0.0 | 2.0 | 0.01 | 0.01 | 0.01 | 79 | 1012.9 |
| 20260508192221 | 50 | 194 | 0.0 | 3.0 | 0.01 | 0.01 | 0.01 | 80 | 1013.1 |
| 20260508191722 | 50 | 242 | 0.0 | 3.0 | 0.01 | 0.01 | 0.01 | 79 | 1013.2 |
| 20260508191221 | 49 | 127 | 0.0 | 0.0 | 0.01 | 0.01 | 0.01 | 79 | 1013.2 |
| 20260508190721 | 50 | 144 | 0.0 | 0.0 | 0.01 | 0.01 | 0.01 | 79 | 1013.3 |
| 20260508190221 | 50 | 150 | 0.0 | 0.0 | 0.01 | 0.01 | 0.01 | 78 | 1013.4 |
| 20260508185721 | 51 | 103 | 0.0 | 4.0 | 0.01 | 0.01 | 0.01 | 77 | 1013.3 |
| 20260508185221 | 51 | 232 | 0.0 | 4.0 | 0.01 | 0.01 | 0.01 | 74 | 1013.2 |
| 20260508184721 | 52 | 169 | 0.0 | 3.0 | 0.00 | 0.00 | 0.00 | 68 | 1013.0 |
| 20260508184221 | 53 | 142 | 0.0 | 2.0 | 0.00 | 0.00 | 0.00 | 65 | 1012.9 |
| 20260508183721 | 54 | 119 | 1.0 | 6.0 | 0.00 | 0.00 | 0.00 | 61 | 1012.6 |
| 20260508183222 | 55 | 141 | 1.0 | 6.0 | 0.00 | 0.00 | 0.00 | 58 | 1012.6 |
| 20260508182717 | 56 | 138 | 0.0 | 5.0 | 0.00 | 0.00 | 0.00 | 54 | 1012.2 |
| 20260508182216 | 56 | 153 | 0.0 | 3.0 | 0.00 | 0.00 | 0.00 | 52 | 1012.0 |
| 20260508181717 | 57 | 92 | 0.0 | 4.0 | 0.00 | 0.00 | 0.00 | 53 | 1012.0 |
| 20260508181217 | 58 | 94 | 0.0 | 4.0 | 0.00 | 0.00 | 0.00 | 51 | 1011.9 |
| 20260508180716 | 58 | 96 | 0.0 | 2.0 | 0.00 | 0.00 | 0.00 | 54 | 1011.9 |
| 20260508180216 | 57 | 134 | 0.0 | 2.0 | 0.00 | 0.00 | 0.00 | 53 | 1012.0 |
| 20260508175717 | 57 | 125 | 0.0 | 3.0 | 0.00 | 0.00 | 0.00 | 54 | 1012.0 |
| 20260508175216 | 56 | 142 | 0.0 | 3.0 | 0.00 | 0.00 | 0.00 | 55 | 1012.1 |
| 20260508174212 | 55 | 121 | 0.0 | 3.0 | 0.00 | 0.00 | 0.00 | 54 | 1012.4 |
| 20260508173710 | 55 | 146 | 0.0 | 3.0 | 0.00 | 0.00 | 0.00 | 54 | 1012.4 |
| 20260508173212 | 55 | 126 | 0.0 | 0.0 | 0.00 | 0.00 | 0.00 | 55 | 1012.6 |
| 20260508172710 | 55 | 112 | 0.0 | 8.0 | 0.00 | 0.00 | 0.00 | 56 | 1012.7 |
| 20260508172210 | 55 | 212 | 0.0 | 8.0 | 0.00 | 0.00 | 0.00 | 54 | 1012.5 |
| 20260508171708 | 56 | 155 | 0.0 | 2.0 | 0.00 | 0.00 | 0.00 | 53 | 1012.5 |
| 20260508171208 | 56 | 113 | 0.0 | 4.0 | 0.00 | 0.00 | 0.00 | 53 | 1012.4 |
| 20260508170706 | 56 | 75 | 0.0 | 4.0 | 0.00 | 0.00 | 0.00 | 52 | 1012.4 |
| 20260508170202 | 56 | 233 | 0.0 | 3.0 | 0.00 | 0.00 | 0.00 | 53 | 1012.3 |
| 20260508165203 | 55 | 150 | 0.0 | 4.0 | 0.00 | 0.00 | 0.00 | 52 | 1012.4 |
| 20260508163700 | 55 | 170 | 0.0 | 2.0 | 0.00 | 0.00 | 0.00 | 52 | 1012.5 |
| 20260508163200 | 55 | 127 | 0.0 | 2.0 | 0.00 | 0.00 | 0.00 | 51 | 1012.7 |
| 20260508162655 | 56 | 68 | 0.0 | 1.0 | 0.00 | 0.00 | 0.00 | 50 | 1012.6 |
| 20260508162149 | 56 | 124 | 0.0 | 3.0 | 0.00 | 0.00 | 0.00 | 50 | 1012.7 |
| 20260508161136 | 56 | 162 | 0.0 | 6.0 | 0.00 | 0.00 | 0.00 | 50 | 1012.6 |
| 20260508160630 | 56 | 176 | 0.0 | 2.0 | 0.00 | 0.00 | 0.00 | 49 | 1012.8 |
| 20260508160125 | 57 | 120 | 0.0 | 6.0 | 0.00 | 0.00 | 0.00 | 48 | 1012.8 |
| 20260508155113 | 58 | 108 | 0.0 | 4.0 | 0.00 | 0.00 | 0.00 | 45 | 1012.9 |
| 20260508154608 | 58 | 142 | 0.0 | 4.0 | 0.00 | 0.00 | 0.00 | 46 | 1012.9 |
| 20260508154101 | 58 | 245 | 0.0 | 5.0 | 0.00 | 0.00 | 0.00 | 45 | 1012.9 |
| 20260508153554 | 58 | 148 | 0.0 | 5.0 | 0.00 | 0.00 | 0.00 | 46 | 1012.8 |
| 20260508153049 | 58 | 77 | 0.0 | 2.0 | 0.00 | 0.00 | 0.00 | 46 | 1012.8 |
| 20260508151531 | 57 | 195 | 0.0 | 4.0 | 0.00 | 0.00 | 0.00 | 42 | 1013.0 |
| 20260508151025 | 57 | 157 | 0.0 | 3.0 | 0.00 | 0.00 | 0.00 | 48 | 1012.8 |
| 20260508150519 | 57 | 131 | 0.0 | 3.0 | 0.00 | 0.00 | 0.00 | 51 | 1012.7 |
| 20260508150013 | 57 | 130 | 0.0 | 3.0 | 0.00 | 0.00 | 0.00 | 53 | 1012.8 |
| 20260508145507 | 56 | 125 | 0.0 | 3.0 | 0.00 | 0.00 | 0.00 | 55 | 1012.9 |
| 20260508145001 | 56 | 147 | 0.0 | 3.0 | 0.00 | 0.00 | 0.00 | 55 | 1012.8 |
| 20260508144455 | 56 | 149 | 0.0 | 2.0 | 0.00 | 0.00 | 0.00 | 56 | 1013.0 |
| 20260508143949 | 56 | 142 | 0.0 | 1.0 | 0.00 | 0.00 | 0.00 | 54 | 1013.1 |
| 20260508143442 | 56 | 150 | 0.0 | 1.0 | 0.00 | 0.00 | 0.00 | 56 | 1012.9 |
| 20260508142937 | 55 | 290 | 0.0 | 4.0 | 0.00 | 0.00 | 0.00 | 53 | 1012.9 |
| 20260508142430 | 55 | 141 | 0.0 | 4.0 | 0.00 | 0.00 | 0.00 | 55 | 1012.9 |
| 20260508141925 | 55 | 162 | 0.0 | 1.0 | 0.00 | 0.00 | 0.00 | 56 | 1012.8 |
| 20260508141419 | 55 | 150 | 0.0 | 1.0 | 0.00 | 0.00 | 0.00 | 58 | 1012.9 |
| 20260508140913 | 55 | 161 | 0.0 | 1.0 | 0.00 | 0.00 | 0.00 | 58 | 1012.9 |
| 20260508135901 | 54 | 247 | 0.0 | 1.0 | 0.00 | 0.00 | 0.00 | 60 | 1013.0 |
| 20260508135354 | 53 | 213 | 0.0 | 3.0 | 0.00 | 0.00 | 0.00 | 63 | 1013.1 |
| 20260508134343 | 53 | 127 | 0.0 | 2.0 | 0.00 | 0.00 | 0.00 | 63 | 1013.2 |
| 20260508133837 | 53 | 134 | 0.0 | 2.0 | 0.00 | 0.00 | 0.00 | 61 | 1013.3 |
| 20260508132825 | 52 | 158 | 0.0 | 1.0 | 0.00 | 0.00 | 0.00 | 66 | 1013.1 |
| 20260508131816 | 51 | 164 | 0.0 | 0.0 | 0.00 | 0.00 | 0.00 | 67 | 1013.0 |
| 20260508130817 | 51 | 105 | 0.0 | 0.0 | 0.00 | 0.00 | 0.00 | 68 | 1013.2 |
| 20260508130314 | 51 | 214 | 0.0 | 0.0 | 0.00 | 0.00 | 0.00 | 68 | 1013.3 |
| 20260508125815 | 50 | 205 | 0.0 | 0.0 | 0.00 | 0.00 | 0.00 | 68 | 1013.4 |
| 20260508125315 | 50 | 119 | 0.0 | 0.0 | 0.00 | 0.00 | 0.00 | 70 | 1013.6 |
| 20260508124814 | 50 | 127 | 0.0 | 0.0 | 0.00 | 0.00 | 0.00 | 71 | 1013.5 |
| 20260508124316 | 49 | 171 | 0.0 | 0.0 | 0.00 | 0.00 | 0.00 | 72 | 1013.5 |
| 20260508123814 | 0 | 0.0 | 0.0 | 0.00 | 0.00 | 0.00 | 1013.5 | ||
| 20260508123221 | 0 | 0.0 | 0.0 | 0.00 | 0.00 | 0.00 | 1013.6 | ||
| 20260508122717 | 0 | 0.0 | 0.0 | 0.00 | 0.00 | 0.00 | 1013.7 | ||
| 20260508122219 | 0 | 0.0 | 0.0 | 0.00 | 0.00 | 0.00 | 1013.6 | ||
| 20260508121626 | 0 | 0.0 | 0.0 | 0.00 | 0.00 | 0.00 | 1013.6 | ||
| 20260508120619 | 0 | 0.0 | 0.0 | 0.00 | 0.00 | 0.00 | 1013.6 | ||
| 20260508115526 | 0 | 0.0 | 0.0 | 0.00 | 0.00 | 0.00 | 1013.5 | ||
| 20260508115025 | 0 | 0.0 | 0.0 | 0.00 | 0.00 | 0.00 | 1013.5 | ||
| 20260508114513 | 0 | 0.0 | 0.0 | 0.00 | 0.00 | 0.00 | 1013.4 | ||
| 20260508113419 | 0 | 0.0 | 0.0 | 0.00 | 0.00 | 0.00 | 1013.3 | ||
| 20260508112907 | 0 | 0.0 | 0.0 | 0.00 | 0.00 | 0.00 | 1013.3 | ||
| 20260508112317 | 0 | 0.0 | 0.0 | 0.00 | 0.00 | 0.00 | 1013.4 | ||
| 20260508111815 | 0 | 0.0 | 0.0 | 0.00 | 0.00 | 0.00 | 1013.4 | ||
| 20260508110727 | 0 | 0.0 | 0.0 | 0.00 | 0.00 | 0.00 | 1013.4 | ||
| 20260508110224 | 0 | 0.0 | 0.0 | 0.00 | 0.00 | 0.00 | 1013.3 | ||
| 20260508105724 | 0 | 0.0 | 0.0 | 0.00 | 0.00 | 0.00 | 1013.2 | ||
| 20260508105208 | 0 | 0.0 | 0.0 | 0.00 | 0.00 | 0.00 | 1013.1 | ||
| 20260508104027 | 0 | 0.0 | 0.0 | 0.00 | 0.00 | 0.00 | 1013.0 | ||
| 20260508103523 | 0 | 0.0 | 0.0 | 0.00 | 0.00 | 0.00 | 1012.9 | ||
| 20260508103017 | 0 | 0.0 | 0.0 | 0.00 | 0.00 | 0.00 | 1013.0 | ||
| 20260508102514 | 0 | 0.0 | 0.0 | 0.00 | 0.00 | 0.00 | 1013.0 | ||
| 20260508101921 | 0 | 0.0 | 0.0 | 0.00 | 0.00 | 0.00 | 1012.9 | ||
| 20260508101329 | 0 | 0.0 | 0.0 | 0.00 | 0.00 | 0.00 | 1012.9 | ||
| 20260508100818 | 0 | 0.0 | 0.0 | 0.00 | 0.00 | 0.00 | 1012.9 | ||
| 20260508100318 | 0 | 0.0 | 0.0 | 0.00 | 0.00 | 0.00 | 1012.7 | ||
| 20260508095817 | 0 | 0.0 | 0.0 | 0.00 | 0.00 | 0.00 | 1012.7 | ||
| 20260508095228 | 0 | 0.0 | 0.0 | 0.00 | 0.00 | 0.00 | 1012.6 | ||
| 20260508094726 | 0 | 0.0 | 0.0 | 0.00 | 0.00 | 0.00 | 1012.6 | ||
| 20260508094215 | 0 | 0.0 | 0.0 | 0.00 | 0.00 | 0.00 | 1012.6 | ||
| 20260508093617 | 0 | 0.0 | 0.0 | 0.00 | 0.00 | 0.00 | 1012.6 | ||
| 20260508093117 | 0 | 0.0 | 0.0 | 0.00 | 0.00 | 0.00 | 1012.5 | ||
| 20260508092527 | 0 | 0.0 | 0.0 | 0.00 | 0.00 | 0.00 | 1012.4 | ||
| 20260508092022 | 0 | 0.0 | 0.0 | 0.00 | 0.00 | 0.00 | 1012.4 | ||
| 20260508091518 | 0 | 0.0 | 0.0 | 0.00 | 0.00 | 0.00 | 1012.3 | ||
| 20260508091016 | 0 | 0.0 | 0.0 | 0.00 | 0.00 | 0.00 | 1012.4 | ||
| 20260508090422 | 0 | 0.0 | 0.0 | 0.00 | 0.00 | 0.00 | 1012.4 | ||
| 20260508085919 | 0 | 0.0 | 0.0 | 0.00 | 0.00 | 0.00 | 1012.4 | ||
| 20260508085418 | 0 | 0.0 | 0.0 | 0.00 | 0.00 | 0.00 | 1012.3 | ||
| 20260508084820 | 0 | 0.0 | 0.0 | 0.00 | 0.00 | 0.00 | 1012.3 | ||
| 20260508084319 | 0 | 0.0 | 0.0 | 0.00 | 0.00 | 0.00 | 1012.2 | ||
| 20260508083226 | 0 | 0.0 | 0.0 | 0.00 | 0.00 | 0.00 | 1012.5 | ||
| 20260508082720 | 0 | 0.0 | 0.0 | 0.00 | 0.00 | 0.00 | 1012.5 | ||
| 20260508082215 | 0 | 0.0 | 0.0 | 0.00 | 0.00 | 0.00 | 1012.5 | ||
| 20260508081126 | 0 | 0.0 | 0.0 | 0.00 | 0.00 | 0.00 | 1012.4 | ||
| 20260508080625 | 0 | 0.0 | 0.0 | 0.00 | 0.00 | 0.00 | 1012.4 | ||
| 20260508080123 | 0 | 0.0 | 0.0 | 0.00 | 0.00 | 0.00 | 1012.5 | ||
| 20260508075114 | 0 | 0.0 | 0.0 | 0.00 | 0.00 | 0.00 | 1012.6 | ||
| 20260508074527 | 0 | 0.0 | 0.0 | 0.00 | 0.00 | 0.00 | 1012.6 | ||
| 20260508074025 | 0 | 0.0 | 0.0 | 0.00 | 0.00 | 0.00 | 1012.4 | ||
| 20260508073516 | 0 | 0.0 | 0.0 | 0.00 | 0.00 | 0.00 | 1012.4 | ||
| 20260508073015 | 0 | 0.0 | 0.0 | 0.00 | 0.00 | 0.00 | 1012.3 | ||
| 20260508072423 | 46 | 131 | 0.0 | 0.0 | 0.00 | 0.00 | 0.00 | 74 | 1012.3 |
| 20260508071854 | 46 | 131 | 0.0 | 0.0 | 0.00 | 0.00 | 0.00 | 74 | 1012.3 |
| 20260508071349 | 46 | 134 | 0.0 | 0.0 | 0.00 | 0.00 | 0.00 | 74 | 1012.4 |
| 20260508070845 | 46 | 112 | 0.0 | 0.0 | 0.00 | 0.00 | 0.00 | 73 | 1012.3 |
| 20260508070346 | 46 | 66 | 0.0 | 0.0 | 0.00 | 0.00 | 0.00 | 73 | 1012.4 |
| 20260508065845 | 46 | 55 | 0.0 | 0.0 | 0.00 | 0.00 | 0.00 | 72 | 1012.4 |
| 20260508065343 | 46 | 129 | 0.0 | 0.0 | 0.00 | 0.00 | 0.00 | 72 | 1012.4 |
| 20260508064841 | 46 | 138 | 0.0 | 0.0 | 0.00 | 0.00 | 0.00 | 71 | 1012.4 |
| 20260508063841 | 47 | 146 | 0.0 | 4.0 | 0.00 | 0.02 | 0.00 | 69 | 1012.3 |